Time,TemperatureF,DewpointF,PressureIn,WindDirection,WindDirectionDegrees,WindSpeedMPH,WindSpeedGustMPH,Humidity,HourlyPrecipIn,Conditions,Clouds,dailyrainin,SoftwareType,DateUTC
2013-01-24 00:04:00,14.8,5.0,30.46,NNW,333,13.0,20.0,66,0.00,,,0.00,weatherlink.com 1.10,2013-01-24 06:04:00,
2013-01-24 00:19:00,14.4,5.0,30.48,NW,311,9.0,18.0,67,0.00,,,0.00,weatherlink.com 1.10,2013-01-24 06:19:00,
2013-01-24 00:34:00,14.1,5.0,30.48,NNW,346,10.0,18.0,68,0.00,,,0.00,weatherlink.com 1.10,2013-01-24 06:34:00,
2013-01-24 00:49:00,13.8,5.0,30.49,NNW,336,9.0,17.0,68,0.00,,,0.00,weatherlink.com 1.10,2013-01-24 06:49:00,
2013-01-24 01:04:00,13.6,5.0,30.50,North,355,9.0,17.0,69,0.00,,,0.00,weatherlink.com 1.10,2013-01-24 07:04:00,
2013-01-24 01:19:00,13.2,5.0,30.51,North,355,5.0,17.0,70,0.00,,,0.00,weatherlink.com 1.10,2013-01-24 07:19:00,
2013-01-24 01:34:00,12.9,5.0,30.52,North,350,16.0,16.0,70,0.00,,,0.00,weatherlink.com 1.10,2013-01-24 07:34:00,
2013-01-24 01:49:00,12.8,5.0,30.52,NNW,339,11.0,14.0,71,0.00,,,0.00,weatherlink.com 1.10,2013-01-24 07:49:00,
2013-01-24 02:04:00,12.6,5.0,30.53,North,5,4.0,14.0,71,0.00,,,0.00,weatherlink.com 1.10,2013-01-24 08:04:00,
2013-01-24 02:19:00,12.4,5.0,30.54,NNW,336,7.0,13.0,72,0.00,,,0.00,weatherlink.com 1.10,2013-01-24 08:19:00,
2013-01-24 02:34:00,12.2,5.0,30.53,NNE,14,7.0,13.0,72,0.00,,,0.00,weatherlink.com 1.10,2013-01-24 08:34:00,
2013-01-24 02:49:00,12.1,5.0,30.54,NNE,32,7.0,13.0,73,0.00,,,0.00,weatherlink.com 1.10,2013-01-24 08:49:00,
2013-01-24 03:04:00,12.0,5.0,30.55,NNE,32,3.0,12.0,73,0.00,,,0.00,weatherlink.com 1.10,2013-01-24 09:04:00,
2013-01-24 03:19:00,11.8,3.0,30.56,North,360,7.0,12.0,68,0.00,,,0.00,weatherlink.com 1.10,2013-01-24 09:19:00,
2013-01-24 03:34:00,11.6,3.0,30.56,North,355,5.0,12.0,67,0.00,,,0.00,weatherlink.com 1.10,2013-01-24 09:34:00,
2013-01-24 03:49:00,11.3,2.0,30.57,East,84,10.0,15.0,66,0.00,,,0.00,weatherlink.com 1.10,2013-01-24 09:49:00,
2013-01-24 04:04:00,11.2,1.0,30.58,North,355,3.0,10.0,63,0.00,,,0.00,weatherlink.com 1.10,2013-01-24 10:04:00,
2013-01-24 04:19:00,10.8,1.0,30.58,NNE,32,7.0,9.0,65,0.00,,,0.00,weatherlink.com 1.10,2013-01-24 10:19:00,
2013-01-24 04:34:00,10.5,1.0,30.59,ESE,111,3.0,14.0,64,0.00,,,0.00,weatherlink.com 1.10,2013-01-24 10:34:00,
2013-01-24 04:49:00,10.4,0.0,30.60,NE,34,3.0,12.0,64,0.00,,,0.00,weatherlink.com 1.10,2013-01-24 10:49:00,
2013-01-24 05:04:00,10.2,1.0,30.60,NNW,346,6.0,11.0,65,0.00,,,0.00,weatherlink.com 1.10,2013-01-24 11:04:00,
2013-01-24 05:19:00,10.1,0.0,30.60,NNE,17,3.0,14.0,65,0.00,,,0.00,weatherlink.com 1.10,2013-01-24 11:19:00,
2013-01-24 05:34:00,9.9,1.0,30.61,North,11,5.0,8.0,66,0.00,,,0.00,weatherlink.com 1.10,2013-01-24 11:34:00,
2013-01-24 05:50:00,9.6,1.0,30.61,North,5,4.0,8.0,69,0.00,,,0.00,weatherlink.com 1.10,2013-01-24 11:50:00,
2013-01-24 06:05:00,9.5,1.0,30.61,North,360,10.0,12.0,68,0.00,,,0.00,weatherlink.com 1.10,2013-01-24 12:05:00,
2013-01-24 06:20:00,9.3,1.0,30.62,North,360,9.0,9.0,68,0.00,,,0.00,weatherlink.com 1.10,2013-01-24 12:20:00,
2013-01-24 06:35:00,9.1,0.0,30.63,North,11,6.0,13.0,66,0.00,,,0.00,weatherlink.com 1.10,2013-01-24 12:35:00,
2013-01-24 06:50:00,9.1,0.0,30.63,North,9,5.0,8.0,67,0.00,,,0.00,weatherlink.com 1.10,2013-01-24 12:50:00,
2013-01-24 07:05:00,8.7,-1.0,30.63,NNE,15,4.0,9.0,66,0.00,,,0.00,weatherlink.com 1.10,2013-01-24 13:05:00,
2013-01-24 07:20:00,8.5,-1.0,30.63,North,355,6.0,10.0,66,0.00,,,0.00,weatherlink.com 1.10,2013-01-24 13:20:00,
2013-01-24 07:35:00,8.5,0.0,30.63,NNE,20,3.0,8.0,67,0.00,,,0.00,weatherlink.com 1.10,2013-01-24 13:35:00,
2013-01-24 07:50:00,8.5,0.0,30.62,NNE,15,2.0,8.0,68,0.00,,,0.00,weatherlink.com 1.10,2013-01-24 13:50:00,
2013-01-24 08:05:00,8.7,-1.0,30.64,North,11,6.0,7.0,66,0.00,,,0.00,weatherlink.com 1.10,2013-01-24 14:05:00,
2013-01-24 08:20:00,8.9,-1.0,30.65,NNE,18,3.0,9.0,64,0.00,,,0.00,weatherlink.com 1.10,2013-01-24 14:20:00,
2013-01-24 08:35:00,9.3,-1.0,30.66,NNE,22,7.0,7.0,64,0.00,,,0.00,weatherlink.com 1.10,2013-01-24 14:35:00,
2013-01-24 08:50:00,9.5,-2.0,30.68,NNE,30,2.0,8.0,61,0.00,,,0.00,weatherlink.com 1.10,2013-01-24 14:50:00,
2013-01-24 09:05:00,10.7,-1.0,30.68,NE,43,6.0,8.0,60,0.00,,,0.00,weatherlink.com 1.10,2013-01-24 15:05:00,
2013-01-24 09:20:00,10.7,-1.0,30.68,NE,49,1.0,9.0,59,0.00,,,0.00,weatherlink.com 1.10,2013-01-24 15:20:00,
2013-01-24 09:35:00,11.7,-1.0,30.68,ENE,59,0.0,8.0,57,0.00,,,0.00,weatherlink.com 1.10,2013-01-24 15:35:00,
2013-01-24 09:51:00,12.4,-1.0,30.68,NE,50,3.0,8.0,55,0.00,,,0.00,weatherlink.com 1.10,2013-01-24 15:51:00,
2013-01-24 10:06:00,13.0,-1.0,30.68,ENE,57,3.0,9.0,54,0.00,,,0.00,weatherlink.com 1.10,2013-01-24 16:06:00,
2013-01-24 10:21:00,14.1,-1.0,30.68,SE,127,3.0,6.0,52,0.00,,,0.00,weatherlink.com 1.10,2013-01-24 16:21:00,
2013-01-24 10:36:00,16.1,1.0,30.68,ESE,108,1.0,6.0,51,0.00,,,0.00,weatherlink.com 1.10,2013-01-24 16:36:00,
2013-01-24 10:51:00,16.5,-1.0,30.68,East,84,3.0,7.0,46,0.00,,,0.00,weatherlink.com 1.10,2013-01-24 16:51:00,
2013-01-24 11:06:00,17.4,0.0,30.68,East,98,2.0,4.0,46,0.00,,,0.00,weatherlink.com 1.10,2013-01-24 17:06:00,
2013-01-24 11:21:00,16.8,-1.0,30.66,SE,133,2.0,7.0,46,0.00,,,0.00,weatherlink.com 1.10,2013-01-24 17:21:00,
2013-01-24 11:36:00,17.9,0.0,30.65,ESE,107,0.0,4.0,45,0.00,,,0.00,weatherlink.com 1.10,2013-01-24 17:36:00,
2013-01-24 11:51:00,18.2,-1.0,30.65,SE,134,1.0,6.0,44,0.00,,,0.00,weatherlink.com 1.10,2013-01-24 17:51:00,
2013-01-24 12:06:00,18.5,-1.0,30.63,SE,125,8.0,9.0,43,0.00,,,0.00,weatherlink.com 1.10,2013-01-24 18:06:00,
2013-01-24 12:21:00,18.5,0.0,30.63,ESE,112,1.0,5.0,45,0.00,,,0.00,weatherlink.com 1.10,2013-01-24 18:21:00,
2013-01-24 12:36:00,18.6,0.0,30.62,East,95,1.0,8.0,45,0.00,,,0.00,weatherlink.com 1.10,2013-01-24 18:36:00,
2013-01-24 12:52:00,19.5,1.0,30.61,SE,126,3.0,7.0,45,0.00,,,0.00,weatherlink.com 1.10,2013-01-24 18:52:00,
2013-01-24 13:07:00,19.8,2.0,30.59,ESE,123,1.0,12.0,46,0.00,,,0.00,weatherlink.com 1.10,2013-01-24 19:07:00,
2013-01-24 13:22:00,20.3,3.0,30.58,ESE,119,0.0,10.0,48,0.00,,,0.00,weatherlink.com 1.10,2013-01-24 19:22:00,
2013-01-24 13:37:00,21.3,4.0,30.58,ESE,111,2.0,6.0,47,0.00,,,0.00,weatherlink.com 1.10,2013-01-24 19:37:00,
2013-01-24 13:52:00,22.3,5.0,30.56,East,88,3.0,7.0,48,0.00,,,0.00,weatherlink.com 1.10,2013-01-24 19:52:00,
2013-01-24 14:07:00,22.4,6.0,30.55,ENE,67,1.0,8.0,49,0.00,,,0.00,weatherlink.com 1.10,2013-01-24 20:07:00,
2013-01-24 14:22:00,23.7,6.0,30.55,NE,38,2.0,7.0,47,0.00,,,0.00,weatherlink.com 1.10,2013-01-24 20:22:00,
2013-01-24 14:37:00,23.8,6.0,30.54,ESE,121,4.0,11.0,47,0.00,,,0.00,weatherlink.com 1.10,2013-01-24 20:37:00,
2013-01-24 14:52:00,23.3,6.0,30.53,East,98,2.0,11.0,48,0.00,,,0.00,weatherlink.com 1.10,2013-01-24 20:52:00,
2013-01-24 15:07:00,23.5,7.0,30.54,ESE,103,1.0,10.0,49,0.00,,,0.00,weatherlink.com 1.10,2013-01-24 21:07:00,
2013-01-24 15:22:00,23.9,7.0,30.52,ESE,114,8.0,12.0,49,0.00,,,0.00,weatherlink.com 1.10,2013-01-24 21:22:00,
2013-01-24 15:37:00,24.2,8.0,30.52,ENE,61,2.0,11.0,50,0.00,,,0.00,weatherlink.com 1.10,2013-01-24 21:37:00,
2013-01-24 15:52:00,24.2,8.0,30.52,ESE,109,5.0,9.0,51,0.00,,,0.00,weatherlink.com 1.10,2013-01-24 21:52:00,
2013-01-24 16:07:00,24.1,8.0,30.50,SSE,149,11.0,14.0,50,0.00,,,0.00,weatherlink.com 1.10,2013-01-24 22:07:00,
2013-01-24 16:23:00,23.6,8.0,30.50,SE,146,8.0,11.0,51,0.00,,,0.00,weatherlink.com 1.10,2013-01-24 22:23:00,
2013-01-24 16:38:00,23.3,8.0,30.50,ESE,111,3.0,11.0,52,0.00,,,0.00,weatherlink.com 1.10,2013-01-24 22:38:00,
2013-01-24 16:53:00,23.1,8.0,30.49,ESE,111,2.0,12.0,52,0.00,,,0.00,weatherlink.com 1.10,2013-01-24 22:53:00,
2013-01-24 17:08:00,22.8,8.0,30.48,ESE,115,3.0,10.0,54,0.00,,,0.00,weatherlink.com 1.10,2013-01-24 23:08:00,
2013-01-24 17:23:00,22.7,8.0,30.46,SE,138,8.0,9.0,54,0.00,,,0.00,weatherlink.com 1.10,2013-01-24 23:23:00,
2013-01-24 17:38:00,22.8,8.0,30.47,East,94,2.0,11.0,54,0.00,,,0.00,weatherlink.com 1.10,2013-01-24 23:38:00,
2013-01-24 17:53:00,22.7,9.0,30.47,ESE,123,1.0,8.0,55,0.00,,,0.00,weatherlink.com 1.10,2013-01-24 23:53:00,
2013-01-24 18:08:00,22.7,9.0,30.46,ESE,120,2.0,6.0,56,0.00,,,0.00,weatherlink.com 1.10,2013-01-25 00:08:00,
2013-01-24 18:23:00,22.8,9.0,30.47,East,93,2.0,6.0,55,0.00,,,0.00,weatherlink.com 1.10,2013-01-25 00:23:00,
2013-01-24 18:38:00,22.9,9.0,30.47,ESE,112,5.0,8.0,56,0.00,,,0.00,weatherlink.com 1.10,2013-01-25 00:38:00,
2013-01-24 18:53:00,22.8,9.0,30.46,ESE,119,2.0,11.0,55,0.00,,,0.00,weatherlink.com 1.10,2013-01-25 00:53:00,
2013-01-24 19:08:00,22.7,9.0,30.45,South,181,6.0,9.0,55,0.00,,,0.00,weatherlink.com 1.10,2013-01-25 01:08:00,
2013-01-24 19:23:00,22.8,9.0,30.45,SE,145,2.0,11.0,56,0.00,,,0.00,weatherlink.com 1.10,2013-01-25 01:23:00,
2013-01-24 19:38:00,22.8,9.0,30.44,SE,140,8.0,9.0,56,0.00,,,0.00,weatherlink.com 1.10,2013-01-25 01:38:00,
2013-01-24 19:54:00,22.7,9.0,30.43,SSE,166,8.0,10.0,57,0.00,,,0.00,weatherlink.com 1.10,2013-01-25 01:54:00,
2013-01-24 20:09:00,22.9,10.0,30.45,SE,142,6.0,10.0,57,0.00,,,0.00,weatherlink.com 1.10,2013-01-25 02:09:00,
2013-01-24 20:24:00,22.9,10.0,30.41,South,183,3.0,10.0,57,0.00,,,0.00,weatherlink.com 1.10,2013-01-25 02:24:00,
2013-01-24 20:39:00,22.9,11.0,30.39,ESE,109,4.0,10.0,60,0.00,,,0.00,weatherlink.com 1.10,2013-01-25 02:39:00,
2013-01-24 20:54:00,22.7,11.0,30.38,SE,126,4.0,9.0,60,0.00,,,0.00,weatherlink.com 1.10,2013-01-25 02:54:00,
2013-01-24 21:09:00,22.7,10.0,30.36,SE,145,3.0,14.0,59,0.00,,,0.00,weatherlink.com 1.10,2013-01-25 03:09:00,
2013-01-24 21:24:00,23.0,10.0,30.35,SSE,161,9.0,13.0,59,0.00,,,0.00,weatherlink.com 1.10,2013-01-25 03:24:00,
2013-01-24 21:39:00,23.1,9.0,30.39,East,94,1.0,12.0,56,0.00,,,0.00,weatherlink.com 1.10,2013-01-25 03:39:00,
2013-01-24 21:54:00,23.2,9.0,30.39,SSE,161,5.0,13.0,55,0.00,,,0.00,weatherlink.com 1.10,2013-01-25 03:54:00,
2013-01-24 22:09:00,23.3,10.0,30.42,ESE,121,1.0,9.0,56,0.00,,,0.00,weatherlink.com 1.10,2013-01-25 04:09:00,
2013-01-24 22:24:00,23.3,9.0,30.40,East,91,6.0,9.0,55,0.00,,,0.00,weatherlink.com 1.10,2013-01-25 04:24:00,
2013-01-24 22:39:00,23.2,9.0,30.39,ESE,112,2.0,9.0,56,0.00,,,0.00,weatherlink.com 1.10,2013-01-25 04:39:00,
2013-01-24 22:54:00,23.3,9.0,30.38,SE,132,5.0,8.0,55,0.00,,,0.00,weatherlink.com 1.10,2013-01-25 04:54:00,
2013-01-24 23:09:00,23.4,9.0,30.37,SE,138,3.0,10.0,55,0.00,,,0.00,weatherlink.com 1.10,2013-01-25 05:09:00,
2013-01-24 23:25:00,23.5,10.0,30.39,SSE,161,1.0,8.0,57,0.00,,,0.00,weatherlink.com 1.10,2013-01-25 05:25:00,
2013-01-24 23:40:00,23.6,9.0,30.35,ESE,114,3.0,10.0,55,0.00,,,0.00,weatherlink.com 1.10,2013-01-25 05:40:00,
2013-01-24 23:55:00,23.5,9.0,30.34,SSE,157,3.0,10.0,55,0.00,,,0.00,weatherlink.com 1.10,2013-01-25 05:55:00,